User: anonymous   Login
Location: Unspecified
(0.0000°N, 0.0000°E)
Time: 20:24:14
(UTC+00:00)
Language:

STARLINK-35612 - Orbit

View from above orbital plane
View from above orbital plane
View from above satellite
View from above satellite

Ground track
Ground track

The orbit is defined by the following mean orbital elements,

1 66128U          26145.40712634 +.00000000 +00000-0 +19369-2 0 00001
2 66128  53.1583  43.4666 0000970  48.1773 311.9311 15.30194461    08
Epoch (UTC): 25 May 2026 09:46:15
Eccentricity: 0.0000970
inclination: 53.1583°
perigee height: 475 km
apogee height: 476 km
right ascension of ascending node: 43.4666°
argument of perigee: 48.1773°
revolutions per day: 15.30194461
mean anomaly at epoch: 311.9311°

The dashed part of the orbit path shows where the satellite is in the earth's shadow,  

DLR